MSC Lirica — HOPW — position and weather

sailwx.info

Track history (hours):
 
Tides and Currents Weather Stations Pressure Air Temp Water Temp Dewpoint Dewpoint Depression Visibility Wind Speed Wind Dir Waves Ship Positions

MSC Lirica

Operator: Mediterranean Shipping Company

Last reported at 2018-May-21 20:32 UTC. Time now 2018-May-23 03:20 UTC.
Position N 37°05' E 024°58'.

Length 275 m; draft 6.8 m.

Type: Ship. MMSI: 356042000.

Date/timePositionNaut miles runAvg speedWind from/ knotsBaromVisibWave heightAir tempDewpointWater temp
2018-May-21 20:32N 37°05' E 024°58'114.5
2018-May-21 20:30N 37°06' E 024°58'714.6
2018-May-21 20:00N 37°12' E 025°01'914.6
2018-May-21 19:24N 37°20' E 025°06'614.3
2018-May-21 19:00N 37°25' E 025°09'713.5
2018-May-21 18:30N 37°27' E 025°18'2 2.1
2018-May-21 17:45N 37°27' E 025°19'0 0.0
2018-May-21 17:24N 37°27' E 025°19'0 0.0
2018-May-21 16:48N 37°27' E 025°19'0 0.0
2018-May-21 11:31N 37°27' E 025°19'0 0.0
2018-May-21 11:28N 37°27' E 025°19'0 0.0
2018-May-21 06:41N 37°27' E 025°19'0 0.0
2018-May-21 06:28N 37°27' E 025°19'0 0.0
2018-May-21 05:55N 37°27' E 025°19'0 0.0
2018-May-21 05:25N 37°27' E 025°19'0 0.0
2018-May-21 04:46N 37°27' E 025°19'0 0.0
2018-May-21 04:30N 37°27' E 025°19'0 0.6
2018-May-21 04:00N 37°28' E 025°19'1 1.7
2018-May-21 03:27N 37°28' E 025°18'613.8
2018-May-21 02:59N 37°26' E 025°10'1017.1
2018-May-21 02:25N 37°19' E 025°02'717.3
2018-May-21 02:00N 37°15' E 024°55'  
2018-May-18 20:17N 44°23' E 013°07'620.3
2018-May-18 20:00N 44°28' E 013°04'1020.0
2018-May-18 19:30N 44°37' E 013°00'1020.0
2018-May-18 19:00N 44°46' E 012°55'1020.0
2018-May-18 18:30N 44°55' E 012°49'1019.7
2018-May-18 18:00N 45°04' E 012°42'1019.6
2018-May-18 17:30N 45°11' E 012°32'1019.2
2018-May-18 17:00N 45°21' E 012°30'714.3
2018-May-18 16:30N 45°26' E 012°24'2 4.9
2018-May-18 16:00N 45°26' E 012°20'1 2.2
2018-May-18 15:28N 45°26' E 012°19'0 0.0
2018-May-18 14:58N 45°26' E 012°19'0 0.0
2018-May-18 14:30N 45°26' E 012°19'0 0.0
2018-May-18 14:00N 45°26' E 012°19'0 0.0
2018-May-18 13:30N 45°26' E 012°19'0 0.0
2018-May-18 13:00N 45°26' E 012°19'0 0.0
2018-May-18 12:30N 45°26' E 012°19'0 0.0
2018-May-18 11:59N 45°26' E 012°19'0 0.0
2018-May-18 11:29N 45°26' E 012°19'0 0.0
2018-May-18 10:59N 45°26' E 012°19'0 0.0
2018-May-18 10:29N 45°26' E 012°19'0 0.0
2018-May-18 09:58N 45°26' E 012°19'0 0.0
2018-May-18 09:28N 45°26' E 012°19'0 0.0
2018-May-18 08:58N 45°26' E 012°19'0 0.0
2018-May-18 08:28N 45°26' E 012°19'0 0.0
2018-May-18 07:58N 45°26' E 012°19'0 0.0
2018-May-18 07:27N 45°26' E 012°19'0 0.0
2018-May-18 07:00N 45°26' E 012°19'0 0.0
2018-May-18 06:30N 45°26' E 012°19'0 0.0
2018-May-18 06:00N 45°26' E 012°19'1 2.4
2018-May-18 05:30N 45°26' E 012°20'2 4.7
2018-May-18 05:00N 45°26' E 012°23'5 9.2
2018-May-18 04:30N 45°24' E 012°29'715.3
2018-May-18 04:00N 45°17' E 012°33'917.8
2018-May-18 03:30N 45°11' E 012°43'918.0
2018-May-18 02:59N 45°06' E 012°53'918.2
2018-May-18 02:30N 45°02' E 013°04'918.6
2018-May-18 02:00N 44°58' E 013°16'917.8
2018-May-18 01:30N 44°52' E 013°26'918.1
2018-May-18 01:00N 44°44' E 013°33'918.2
2018-May-18 00:30N 44°37' E 013°40'918.2
2018-May-18 00:00N 44°29' E 013°47'918.2
2018-May-17 23:30N 44°21' E 013°54'  
2018-May-15 15:56N 35°56' E 023°30'817.8
2018-May-15 15:30N 35°54' E 023°39'918.0
2018-May-15 15:00N 35°50' E 023°49'918.1
2018-May-15 14:30N 35°47' E 023°59'918.6
2018-May-15 14:00N 35°43' E 024°10'1218.3
2018-May-15 13:22N 35°39' E 024°23'90 5.5
2018-May-14 20:47N 37°05' E 024°58'414.6
2018-May-14 20:30N 37°09' E 024°59'714.8
2018-May-14 20:00N 37°16' E 025°03'714.5
2018-May-14 19:30N 37°22' E 025°07'713.9
2018-May-14 19:00N 37°27' E 025°13'5 9.6
2018-May-14 18:30N 37°28' E 025°19'0 0.1
2018-May-14 17:59N 37°28' E 025°19'0 0.0
2018-May-14 17:29N 37°28' E 025°19'0 0.0
2018-May-14 16:58N 37°28' E 025°19'0 0.0
2018-May-14 16:28N 37°28' E 025°19'0 0.0
2018-May-14 15:58N 37°28' E 025°19'0 0.0
2018-May-14 15:13N 37°28' E 025°19'0 0.0
2018-May-14 15:00N 37°28' E 025°19'0 0.0
2018-May-14 14:30N 37°28' E 025°19'0 0.0
2018-May-14 14:00N 37°28' E 025°19'0 0.0
2018-May-14 13:30N 37°28' E 025°19'0 0.0
2018-May-14 13:00N 37°28' E 025°19'0 0.0
2018-May-14 12:26N 37°28' E 025°19'0 0.0
2018-May-14 11:53N 37°28' E 025°19'0 0.0
2018-May-14 11:29N 37°28' E 025°19'0 0.0
2018-May-14 10:59N 37°28' E 025°19'0 0.0
2018-May-14 10:29N 37°28' E 025°19'0 0.0
2018-May-14 09:55N 37°28' E 025°19'0 0.0
2018-May-14 09:28N 37°28' E 025°19'0 0.0
2018-May-14 08:58N 37°28' E 025°19'0 0.0
2018-May-14 08:28N 37°28' E 025°19'0 0.0
2018-May-14 08:01N 37°28' E 025°19'0 0.0
2018-May-14 07:30N 37°28' E 025°19'0 0.0
2018-May-14 07:00N 37°28' E 025°19'0 0.0
2018-May-14 06:30N 37°28' E 025°19'0 0.0
2018-May-14 06:00N 37°28' E 025°19'0 0.0
2018-May-14 05:26N 37°28' E 025°19'0 0.0
2018-May-14 04:56N 37°28' E 025°19'0 0.0
2018-May-14 04:29N 37°28' E 025°19'0 0.0
2018-May-14 03:59N 37°28' E 025°19'1 1.7
2018-May-14 03:27N 37°28' E 025°18'511.3
2018-May-14 03:00N 37°27' E 025°12'612.7
2018-May-14 02:30N 37°22' E 025°06'612.4
2018-May-14 02:00N 37°18' E 025°01'712.4
2018-May-14 01:28N 37°14' E 024°54'5413.6
2018-May-13 21:31N 36°45' E 023°57'014.3
2018-May-13 21:29N 36°45' E 023°57'60113.2
2018-May-11 23:51N 43°33' E 014°20'1620.2
2018-May-11 23:04N 43°44' E 014°05'220.1
2018-May-11 22:58N 43°46' E 014°03'4120.3
2018-May-11 20:56N 44°11' E 013°17'  
Track history (hours):
 
Tides and Currents Weather Stations Pressure Air Temp Water Temp Dewpoint Dewpoint Depression Visibility Wind Speed Wind Dir Waves Ship Positions

MSC Lirica

Operator: Mediterranean Shipping Company

Last reported at 2018-May-21 20:32 UTC. Time now 2018-May-23 03:20 UTC.
Position N 37°05' E 024°58'.

Length 275 m; draft 6.8 m.

Type: Ship. MMSI: 356042000.

Date/timePositionNaut miles runAvg speedWind from/ knotsBaromVisibWave heightAir tempDewpointWater temp
2018-May-21 20:32N 37°05' E 024°58'114.5
2018-May-21 20:30N 37°06' E 024°58'714.6
2018-May-21 20:00N 37°12' E 025°01'914.6
2018-May-21 19:24N 37°20' E 025°06'614.3
2018-May-21 19:00N 37°25' E 025°09'713.5
2018-May-21 18:30N 37°27' E 025°18'2 2.1
2018-May-21 17:45N 37°27' E 025°19'0 0.0
2018-May-21 17:24N 37°27' E 025°19'0 0.0
2018-May-21 16:48N 37°27' E 025°19'0 0.0
2018-May-21 11:31N 37°27' E 025°19'0 0.0
2018-May-21 11:28N 37°27' E 025°19'0 0.0
2018-May-21 06:41N 37°27' E 025°19'0 0.0
2018-May-21 06:28N 37°27' E 025°19'0 0.0
2018-May-21 05:55N 37°27' E 025°19'0 0.0
2018-May-21 05:25N 37°27' E 025°19'0 0.0
2018-May-21 04:46N 37°27' E 025°19'0 0.0
2018-May-21 04:30N 37°27' E 025°19'0 0.6
2018-May-21 04:00N 37°28' E 025°19'1 1.7
2018-May-21 03:27N 37°28' E 025°18'613.8
2018-May-21 02:59N 37°26' E 025°10'1017.1
2018-May-21 02:25N 37°19' E 025°02'717.3
2018-May-21 02:00N 37°15' E 024°55'  
2018-May-18 20:17N 44°23' E 013°07'620.3
2018-May-18 20:00N 44°28' E 013°04'1020.0
2018-May-18 19:30N 44°37' E 013°00'1020.0
2018-May-18 19:00N 44°46' E 012°55'1020.0
2018-May-18 18:30N 44°55' E 012°49'1019.7
2018-May-18 18:00N 45°04' E 012°42'1019.6
2018-May-18 17:30N 45°11' E 012°32'1019.2
2018-May-18 17:00N 45°21' E 012°30'714.3
2018-May-18 16:30N 45°26' E 012°24'2 4.9
2018-May-18 16:00N 45°26' E 012°20'1 2.2
2018-May-18 15:28N 45°26' E 012°19'0 0.0
2018-May-18 14:58N 45°26' E 012°19'0 0.0
2018-May-18 14:30N 45°26' E 012°19'0 0.0
2018-May-18 14:00N 45°26' E 012°19'0 0.0
2018-May-18 13:30N 45°26' E 012°19'0 0.0
2018-May-18 13:00N 45°26' E 012°19'0 0.0
2018-May-18 12:30N 45°26' E 012°19'0 0.0
2018-May-18 11:59N 45°26' E 012°19'0 0.0
2018-May-18 11:29N 45°26' E 012°19'0 0.0
2018-May-18 10:59N 45°26' E 012°19'0 0.0
2018-May-18 10:29N 45°26' E 012°19'0 0.0
2018-May-18 09:58N 45°26' E 012°19'0 0.0
2018-May-18 09:28N 45°26' E 012°19'0 0.0
2018-May-18 08:58N 45°26' E 012°19'0 0.0
2018-May-18 08:28N 45°26' E 012°19'0 0.0
2018-May-18 07:58N 45°26' E 012°19'0 0.0
2018-May-18 07:27N 45°26' E 012°19'0 0.0
2018-May-18 07:00N 45°26' E 012°19'0 0.0
2018-May-18 06:30N 45°26' E 012°19'0 0.0
2018-May-18 06:00N 45°26' E 012°19'1 2.4
2018-May-18 05:30N 45°26' E 012°20'2 4.7
2018-May-18 05:00N 45°26' E 012°23'5 9.2
2018-May-18 04:30N 45°24' E 012°29'715.3
2018-May-18 04:00N 45°17' E 012°33'917.8
2018-May-18 03:30N 45°11' E 012°43'918.0
2018-May-18 02:59N 45°06' E 012°53'918.2
2018-May-18 02:30N 45°02' E 013°04'918.6
2018-May-18 02:00N 44°58' E 013°16'917.8
2018-May-18 01:30N 44°52' E 013°26'918.1
2018-May-18 01:00N 44°44' E 013°33'918.2
2018-May-18 00:30N 44°37' E 013°40'918.2
2018-May-18 00:00N 44°29' E 013°47'918.2
2018-May-17 23:30N 44°21' E 013°54'  
2018-May-15 15:56N 35°56' E 023°30'817.8
2018-May-15 15:30N 35°54' E 023°39'918.0
2018-May-15 15:00N 35°50' E 023°49'918.1
2018-May-15 14:30N 35°47' E 023°59'918.6
2018-May-15 14:00N 35°43' E 024°10'1218.3
2018-May-15 13:22N 35°39' E 024°23'90 5.5
2018-May-14 20:47N 37°05' E 024°58'414.6
2018-May-14 20:30N 37°09' E 024°59'714.8
2018-May-14 20:00N 37°16' E 025°03'714.5
2018-May-14 19:30N 37°22' E 025°07'713.9
2018-May-14 19:00N 37°27' E 025°13'5 9.6
2018-May-14 18:30N 37°28' E 025°19'0 0.1
2018-May-14 17:59N 37°28' E 025°19'0 0.0
2018-May-14 17:29N 37°28' E 025°19'0 0.0
2018-May-14 16:58N 37°28' E 025°19'0 0.0
2018-May-14 16:28N 37°28' E 025°19'0 0.0
2018-May-14 15:58N 37°28' E 025°19'0 0.0
2018-May-14 15:13N 37°28' E 025°19'0 0.0
2018-May-14 15:00N 37°28' E 025°19'0 0.0
2018-May-14 14:30N 37°28' E 025°19'0 0.0
2018-May-14 14:00N 37°28' E 025°19'0 0.0
2018-May-14 13:30N 37°28' E 025°19'0 0.0
2018-May-14 13:00N 37°28' E 025°19'0 0.0
2018-May-14 12:26N 37°28' E 025°19'0 0.0
2018-May-14 11:53N 37°28' E 025°19'0 0.0
2018-May-14 11:29N 37°28' E 025°19'0 0.0
2018-May-14 10:59N 37°28' E 025°19'0 0.0
2018-May-14 10:29N 37°28' E 025°19'0 0.0
2018-May-14 09:55N 37°28' E 025°19'0 0.0
2018-May-14 09:28N 37°28' E 025°19'0 0.0
2018-May-14 08:58N 37°28' E 025°19'0 0.0
2018-May-14 08:28N 37°28' E 025°19'0 0.0
2018-May-14 08:01N 37°28' E 025°19'0 0.0
2018-May-14 07:30N 37°28' E 025°19'0 0.0
2018-May-14 07:00N 37°28' E 025°19'0 0.0
2018-May-14 06:30N 37°28' E 025°19'0 0.0
2018-May-14 06:00N 37°28' E 025°19'0 0.0
2018-May-14 05:26N 37°28' E 025°19'0 0.0
2018-May-14 04:56N 37°28' E 025°19'0 0.0
2018-May-14 04:29N 37°28' E 025°19'0 0.0
2018-May-14 03:59N 37°28' E 025°19'1 1.7
2018-May-14 03:27N 37°28' E 025°18'511.3
2018-May-14 03:00N 37°27' E 025°12'612.7
2018-May-14 02:30N 37°22' E 025°06'612.4
2018-May-14 02:00N 37°18' E 025°01'712.4
2018-May-14 01:28N 37°14' E 024°54'5413.6
2018-May-13 21:31N 36°45' E 023°57'014.3
2018-May-13 21:29N 36°45' E 023°57'60113.2
2018-May-11 23:51N 43°33' E 014°20'1620.2
2018-May-11 23:04N 43°44' E 014°05'220.1
2018-May-11 22:58N 43°46' E 014°03'4120.3
2018-May-11 20:56N 44°11' E 013°17'  

Dump ship's entire track history